Muscle Shoals, AL

8:19 PM CST on February 11, 2016 (GMT -0600)
Northwest Alabama Regional

Weather History for KMSL - July, 2013

Change the Weather History Date:

Thursday, July 25, 2013

  Actual Average Record
Temperature  
Mean Temperature 78 °F 81 °F  
Max Temperature 87 °F 91 °F 102 °F (1924)
Min Temperature 68 °F 70 °F 55 °F (1909)
Degree Days  
Heating Degree Days 0 0  
Month to date heating degree days 0 0  
Since 1 June heating degree days 0 1  
Since 1 July heating degree days 0 0  
Cooling Degree Days 13 16  
Month to date cooling degree days 348 386  
Year to date cooling degree days 994 992  
Since 1 June cooling degree days 754 748  
Growing Degree Days 26 (Base 50)    
Moisture  
Dew Point 64 °F    
Average Humidity 66    
Maximum Humidity 84    
Minimum Humidity 48    
Precipitation  
Precipitation 0.00 in 0.13 in 1.77 in (1933)
Month to date precipitation 5.88 3.61  
Year to date precipitation 35.47 31.87  
Snow  
Snow 0.00 in - - ()
Month to date snowfall 0.0  
Since 1 June snowfall 0.0  
Since 1 July snowfall 0.0  
Snow Depth 0.00 in    
Sea Level Pressure  
Sea Level Pressure 30.00 in    
Wind  
Wind Speed 4 mph (North)    
Max Wind Speed 10 mph    
Max Gust Speed 14 mph    
Visibility 10 miles    
Events      
T = Trace of Precipitation, MM = Missing Value Source: NWS Daily Summary

Daily Weather History Graph

Daily Weather History Graph

Search for Another Location

Airport or City:

Trip Planner

Search our weather history database for the weather conditions in past years. The results will help you decide how hot, cold, wet, or windy it might be!

Date:

Astronomy

Jul. 25, 2013 Rise Set
Actual Time 5:55 AM CDT 7:58 PM CDT
Civil Twilight 5:27 AM CDT 8:26 PM CDT
Nautical Twilight 4:52 AM CDT 9:00 PM CDT
Astronomical Twilight 4:16 AM CDT 9:37 PM CDT
Moon 9:50 PM CDT (7/25) 9:13 AM CDT (7/25)
Length of Visible Light 14h 58m
Length of Day
14h 02m
Waning Gibbous, 88% of the Moon is Illuminated
Jul 25
Waning Gibbous
Jul 29
Last Quarter
Aug 6
New
Aug 14
First Quarter
Aug 20
Full

Hourly Weather History & Observations

Time (CDT) Temp. Heat Index Dew Point Humidity Pressure Visibility Wind Dir Wind Speed Gust Speed Precip Events Conditions
12:53 AM 75.0 °F - 68.0 °F 79% 29.93 in 10.0 mi North 4.6 mph - N/A   Clear
1:53 AM 73.9 °F - 66.0 °F 76% 29.94 in 10.0 mi NNE 3.5 mph - N/A   Overcast
2:53 AM 73.0 °F - 64.9 °F 76% 29.93 in 10.0 mi North 4.6 mph - N/A   Mostly Cloudy
3:53 AM 71.1 °F - 64.9 °F 81% 29.94 in 10.0 mi Calm Calm - N/A   Scattered Clouds
4:53 AM 70.0 °F - 64.0 °F 81% 29.94 in 10.0 mi Variable 3.5 mph - N/A   Clear
5:53 AM 69.1 °F - 63.0 °F 81% 29.96 in 10.0 mi Calm Calm - N/A   Clear
6:53 AM 70.0 °F - 63.0 °F 78% 29.98 in 10.0 mi Variable 4.6 mph - N/A   Clear
7:53 AM 73.9 °F - 64.0 °F 71% 29.99 in 10.0 mi Calm Calm - N/A   Clear
8:53 AM 75.9 °F - 63.0 °F 64% 30.00 in 10.0 mi Variable 4.6 mph - N/A   Clear
9:53 AM 79.0 °F - 64.0 °F 60% 30.01 in 10.0 mi NNW 6.9 mph - N/A   Clear
10:53 AM 80.1 °F 81.7 °F 64.0 °F 58% 30.02 in 10.0 mi Variable 5.8 mph - N/A   Clear
11:53 AM 81.0 °F 81.9 °F 62.1 °F 52% 30.03 in 10.0 mi NNE 4.6 mph - N/A   Clear
12:53 PM 82.9 °F 84.0 °F 63.0 °F 51% 30.03 in 10.0 mi North 6.9 mph - N/A   Clear
1:53 PM 84.0 °F 85.4 °F 64.0 °F 51% 30.03 in 10.0 mi NW 5.8 mph - N/A   Clear
2:53 PM 84.0 °F 84.9 °F 63.0 °F 49% 30.02 in 10.0 mi Variable 5.8 mph - N/A   Clear
3:53 PM 84.9 °F 86.1 °F 64.0 °F 49% 30.01 in 10.0 mi North 5.8 mph - N/A   Clear
4:53 PM 84.9 °F 85.9 °F 63.0 °F 48% 30.01 in 10.0 mi NNE 4.6 mph - N/A   Clear
5:53 PM 84.9 °F 86.1 °F 64.0 °F 49% 30.01 in 10.0 mi North 3.5 mph - N/A   Clear
6:53 PM 81.0 °F 82.2 °F 63.0 °F 54% 30.02 in 10.0 mi North 3.5 mph - N/A   Scattered Clouds
7:53 PM 75.9 °F - 66.9 °F 74% 30.02 in 10.0 mi Calm Calm - N/A   Mostly Cloudy
8:53 PM 75.9 °F - 64.0 °F 67% 30.03 in 10.0 mi NNW 5.8 mph - N/A   Clear
9:53 PM 73.9 °F - 64.0 °F 71% 30.03 in 10.0 mi North 3.5 mph - N/A   Clear
10:53 PM 73.0 °F - 64.0 °F 73% 30.04 in 10.0 mi North 3.5 mph - N/A   Clear
11:53 PM 71.1 °F - 64.0 °F 78% 30.05 in 10.0 mi Calm Calm - N/A   Clear